TimeEDT,TemperatureF,Dew PointF,Humidity,Sea Level PressureIn,VisibilityMPH,Wind Direction,Wind SpeedMPH,Gust SpeedMPH,PrecipitationIn,Events,Conditions,WindDirDegrees,DateUTC
12:15 AM,63.5,55.9,76,29.99,10.0,Calm,Calm,-,N/A,,Clear,0,2013-07-07 04:15:00
12:35 AM,64.6,56.3,74,29.99,10.0,Calm,Calm,-,N/A,,Clear,0,2013-07-07 04:35:00
12:56 AM,63.9,56.3,76,29.98,10.0,SSW,3.5,-,N/A,,Clear,210,2013-07-07 04:56:00
1:16 AM,63.1,55.9,77,29.98,10.0,SW,4.6,-,N/A,,Clear,220,2013-07-07 05:16:00
1:35 AM,61.7,55.9,81,29.98,10.0,Calm,Calm,-,N/A,,Clear,0,2013-07-07 05:35:00
1:56 AM,61.5,55.2,80,29.98,10.0,Calm,Calm,-,N/A,,Clear,0,2013-07-07 05:56:00
2:15 AM,60.6,56.5,86,29.96,10.0,SSW,3.5,-,N/A,,Clear,210,2013-07-07 06:15:00
2:35 AM,63.5,58.1,83,29.96,-9999.0,SW,3.5,-,N/A,,Clear,220,2013-07-07 06:35:00
2:56 AM,61.2,56.5,85,29.96,7.0,Calm,Calm,-,N/A,,Clear,0,2013-07-07 06:56:00
3:15 AM,58.8,55.9,90,29.96,7.0,Calm,Calm,-,N/A,,Clear,0,2013-07-07 07:15:00
3:35 AM,59.0,56.5,91,29.96,7.0,Calm,Calm,-,N/A,,Clear,0,2013-07-07 07:35:00
3:56 AM,60.8,57.9,90,29.96,7.0,Calm,Calm,-,N/A,,Clear,0,2013-07-07 07:56:00
4:15 AM,58.3,55.9,92,29.96,7.0,Calm,Calm,-,N/A,,Clear,0,2013-07-07 08:15:00
4:35 AM,58.8,56.1,91,29.96,7.0,Calm,Calm,-,N/A,,Clear,0,2013-07-07 08:35:00
4:56 AM,58.5,55.9,91,29.96,7.0,Calm,Calm,-,N/A,,Clear,0,2013-07-07 08:56:00
5:15 AM,59.0,56.7,92,29.95,7.0,Calm,Calm,-,N/A,,Clear,0,2013-07-07 09:15:00
5:35 AM,60.1,56.8,89,29.95,10.0,South,3.5,-,N/A,,Clear,190,2013-07-07 09:35:00
5:55 AM,62.1,58.6,89,29.95,7.0,South,4.6,-,N/A,,Clear,180,2013-07-07 09:55:00
6:16 AM,59.4,55.8,88,29.96,5.0,SSW,3.5,-,N/A,,Clear,210,2013-07-07 10:16:00
6:35 AM,60.6,57.4,89,29.96,7.0,SSW,4.6,-,N/A,,Clear,210,2013-07-07 10:35:00
6:56 AM,60.8,57.2,88,29.96,5.0,Calm,Calm,-,N/A,,Clear,0,2013-07-07 10:56:00
7:15 AM,65.3,61.3,87,29.96,7.0,SSW,4.6,-,N/A,,Clear,210,2013-07-07 11:15:00
7:35 AM,67.8,61.7,81,29.96,10.0,Calm,Calm,-,N/A,,Clear,0,2013-07-07 11:35:00
7:55 AM,70.0,61.9,75,29.96,10.0,South,3.5,-,N/A,,Clear,190,2013-07-07 11:55:00
8:15 AM,72.7,62.2,70,29.96,10.0,SSW,5.8,-,N/A,,Clear,210,2013-07-07 12:15:00
8:35 AM,74.3,62.8,67,29.96,10.0,SW,5.8,-,N/A,,Clear,220,2013-07-07 12:35:00
8:56 AM,76.8,63.3,63,29.96,10.0,SW,5.8,-,N/A,,Clear,230,2013-07-07 12:56:00
9:16 AM,77.2,63.3,62,29.96,10.0,WSW,6.9,-,N/A,,Clear,240,2013-07-07 13:16:00
9:35 AM,76.6,63.7,64,29.96,10.0,SW,6.9,-,N/A,,Clear,230,2013-07-07 13:35:00
9:56 AM,76.1,64.2,67,29.96,10.0,SW,8.1,-,N/A,,Clear,220,2013-07-07 13:56:00
10:15 AM,76.3,64.8,67,29.96,10.0,NW,5.8,-,N/A,,Scattered Clouds,320,2013-07-07 14:15:00
10:35 AM,77.2,65.7,67,29.96,10.0,SW,3.5,-,N/A,,Scattered Clouds,220,2013-07-07 14:35:00
10:55 AM,77.4,65.3,66,29.95,10.0,WSW,4.6,-,N/A,,Clear,240,2013-07-07 14:55:00
11:15 AM,77.9,64.6,63,29.96,10.0,SW,6.9,-,N/A,,Clear,230,2013-07-07 15:15:00
11:36 AM,77.9,65.3,65,29.95,10.0,SW,5.8,-,N/A,,Scattered Clouds,230,2013-07-07 15:36:00
11:55 AM,79.2,65.8,64,29.96,10.0,SW,4.6,-,N/A,,Scattered Clouds,230,2013-07-07 15:55:00
12:15 PM,79.2,66.0,64,29.95,10.0,Calm,Calm,-,N/A,,Scattered Clouds,0,2013-07-07 16:15:00
12:35 PM,79.2,66.0,64,29.94,10.0,NE,6.9,-,N/A,,Clear,40,2013-07-07 16:35:00
12:55 PM,80.8,65.8,60,29.93,10.0,Calm,Calm,-,N/A,,Clear,0,2013-07-07 16:55:00
1:15 PM,81.3,66.9,61,29.92,10.0,Calm,Calm,-,N/A,,Clear,0,2013-07-07 17:15:00
1:35 PM,84.6,64.4,51,29.92,10.0,ESE,4.6,-,N/A,,Scattered Clouds,120,2013-07-07 17:35:00
1:56 PM,81.3,66.9,61,29.92,10.0,NNE,6.9,-,N/A,,Mostly Cloudy,20,2013-07-07 17:56:00
2:13 PM,81.3,66.9,61,29.92,10.0,NNE,5.8,-,N/A,,Mostly Cloudy,30,2013-07-07 18:13:00
2:35 PM,76.5,64.9,67,29.93,10.0,North,6.9,-,N/A,,Mostly Cloudy,350,2013-07-07 18:35:00
2:55 PM,77.4,66.0,68,29.94,10.0,North,4.6,-,N/A,,Scattered Clouds,360,2013-07-07 18:55:00
3:15 PM,77.9,66.7,68,29.93,10.0,ENE,3.5,-,N/A,,Mostly Cloudy,60,2013-07-07 19:15:00
3:36 PM,77.4,67.1,71,29.93,10.0,East,4.6,-,N/A,,Overcast,80,2013-07-07 19:36:00
3:56 PM,75.6,66.4,73,29.93,10.0,NNE,4.6,-,N/A,,Mostly Cloudy,30,2013-07-07 19:56:00
4:15 PM,75.9,66.2,72,29.93,10.0,North,5.8,-,N/A,,Overcast,360,2013-07-07 20:15:00
4:36 PM,74.8,64.8,71,29.93,10.0,NNW,5.8,-,N/A,,Overcast,340,2013-07-07 20:36:00
4:55 PM,76.8,65.7,68,29.93,10.0,Calm,Calm,-,N/A,,Mostly Cloudy,0,2013-07-07 20:55:00
5:15 PM,76.8,65.1,67,29.93,10.0,NNE,4.6,-,N/A,,Overcast,20,2013-07-07 21:15:00
5:36 PM,75.7,64.6,68,29.93,10.0,NNE,3.5,-,N/A,,Overcast,20,2013-07-07 21:36:00
5:55 PM,76.3,64.6,67,29.93,10.0,North,4.6,-,N/A,,Overcast,360,2013-07-07 21:55:00
6:15 PM,76.5,65.3,68,29.93,10.0,NE,4.6,-,N/A,,Mostly Cloudy,50,2013-07-07 22:15:00
6:36 PM,74.1,65.1,73,29.93,7.0,North,3.5,-,N/A,,Mostly Cloudy,10,2013-07-07 22:36:00
6:55 PM,72.7,65.3,78,29.93,7.0,Calm,Calm,-,N/A,,Overcast,0,2013-07-07 22:55:00
7:16 PM,73.8,66.2,77,29.93,7.0,Calm,Calm,-,N/A,,Overcast,0,2013-07-07 23:16:00
7:35 PM,75.7,66.7,74,29.93,10.0,Calm,Calm,-,N/A,,Overcast,0,2013-07-07 23:35:00
7:55 PM,75.6,64.8,69,29.94,10.0,Calm,Calm,-,N/A,Rain,Light Rain,0,2013-07-07 23:55:00
8:15 PM,70.2,66.6,88,29.94,4.0,Calm,Calm,-,N/A,Rain,Light Rain,0,2013-07-08 00:15:00
8:35 PM,70.7,67.1,88,29.94,4.0,Calm,Calm,-,N/A,,Overcast,0,2013-07-08 00:35:00
8:56 PM,70.3,67.1,89,29.95,4.0,Calm,Calm,-,N/A,,Mostly Cloudy,0,2013-07-08 00:56:00
9:15 PM,70.0,67.1,91,29.94,4.0,Calm,Calm,-,N/A,,Mostly Cloudy,0,2013-07-08 01:15:00
9:35 PM,68.7,66.4,92,29.94,2.0,Calm,Calm,-,N/A,,Mist,0,2013-07-08 01:35:00
9:56 PM,68.2,66.2,93,29.95,2.5,Calm,Calm,-,N/A,,Mist,0,2013-07-08 01:56:00
10:15 PM,67.3,65.5,94,29.96,0.8,Calm,Calm,-,N/A,,Mostly Cloudy,0,2013-07-08 02:15:00
10:36 PM,66.7,64.9,94,29.96,1.8,ESE,3.5,-,N/A,,Mist,110,2013-07-08 02:36:00
10:55 PM,66.4,64.8,95,29.96,2.5,Calm,Calm,-,N/A,,Mist,0,2013-07-08 02:55:00
11:15 PM,66.2,64.4,94,29.96,2.5,Calm,Calm,-,N/A,,Overcast,0,2013-07-08 03:15:00
11:36 PM,66.7,64.9,94,29.96,2.5,Calm,Calm,-,N/A,,Overcast,0,2013-07-08 03:36:00
11:55 PM,67.3,65.3,93,29.97,5.0,Calm,Calm,-,N/A,,Mostly Cloudy,0,2013-07-08 03:55:00